Airfield :
LOGIN :

Register | Disclaimer

   EN    FR    IT 

 










Legend :    VFR   Marginal VFR   IFR   Intensive IFR   Very Intensive IFR
Visi :
Ceiling :
>= 8 km
>= 3000ft
5 to 8 km
1000 to 3000 ft
1500m to 5 km
500 to 1000 ft
800 to 1500m
200 to 500 ft
< 800m
< 200 ft
Symbols :   Thunderstorms  Fog  Heavy snow  Heavy precipitations  Wind > 20 kt
SIGMETs :     Misc.  Thunderstorms  Icing  Turbulence  Mountain Waves  Volcanic Ashes







- Airport Elevation : 80 ft
- IATA code : LPL
- Download approach charts


EGGP - Liverpool John Lennon

CURRENT METAR :
  • 262350Z 14004KT 100V170 9999 BKN040 16/11 Q1011

EXPIRED METARs :
  • 262320Z 13005KT 090V180 9999 BKN042 16/11 Q1011
  • 262250Z 11006KT 9999 BKN046 17/11 Q1011
  • 262220Z 11006KT 9999 BKN045 16/12 Q1011
  • 262150Z 10006KT 9999 BKN040 16/11 Q1011
  • 262120Z 10006KT 9999 BKN046 16/11 Q1012

TAF TAF EGGP
Valid from the 27 at 00:00 until the 28 at 00:00 UTC


262254Z 2700/2724 12009KT 9999 BKN040
TEMPO 2700/2714 7000 RA
PROB30
TEMPO 2702/2710 4500 RADZ BKN010
PROB30
TEMPO 2714/2722 8000 RA
TEMPO 2722/2724 7000 RA BKN010
ATIS : +44 151 907 2000 (option 5 or ext 5150)
Met : +44 871 750 5150
No reported NOTAMs for that airfield.



MET'MAP, your aeronautical weather chart ! - Copyright ORBIFLY December 2007 - Disclaimer

ORBIFLY MET'MAP TEAM :

Programming & Development : Alexandra Zaïnal
Concept & Development : Baudouin d'Aumeries
Co-Development & Prog : Marc-Olivier Méhu
Technical & hardware support : Manuel Goepfert

Contact : metmap@orbifly.com




SOURCES & CREDITS :

   NOAA